Вернуться в каталог

SL-8 R/B

АктивенPO
NORAD 9613·ROCKET BODY·🇷🇺 Russia

Запущен Dec 15, 1976 с Plesetsk Cosmodrome

Loading…

Ближайшие Пролёты (ближайшие 24 часа)

TLE

СвежийSource: Space-Track

Эпоха: Sep 14, 2026, 10:49 UTC

1 09613U 76122B   26257.45137354  .00000072  00000-0  56004-4 0  9999
2 09613  82.9574 164.2684 0029822 183.4173 176.6786 13.77781983499903

Отслеживайте SL-8 R/B в реальном времени с AllMySat

Download on the App Store